Location: ????????
(55.6189°N, 38.3031°E)
Time: 20:45:23
(UTC+00:00)

SL-16 R/B - Pass Details

Date: 22 February 2020
Orbit: 843 x 847 km, 71.0° (Epoch: 09 April)

Event Time Altitude Azimuth Distance (km) Brightness Sun altitude
Exits shadow 23:57:48 25° 84° (E) 1,631 4.0 -37.1°
Drops below altitude 10° 00:01:18 10° 49° (NE) 2,476 5.4 -36.8°
Sets 00:04:03 0° 38° (NE) 3,415 6.3 -36.5°
